HK4K-15 Weather Reports


Display with metric or nautical units.
time (UTC)temp
F
wind
direction
speed
MPH
gust
MPH
rain 1hr
in
rain 24hr
in
rain mn
in
humidity
%
barometer
mb
20260507063042 63 360 11.0 0.0 0.00 0.00 0.00 88 1016.0
20260507061342 63 360 11.0 0.0 0.00 0.00 0.00 88 1016.0
20260507055627 63 360 11.0 0.0 0.00 0.00 0.00 88 1016.0
20260507053927 63 360 11.0 0.0 0.00 0.00 0.00 87 1016.0
20260507052225 63 360 11.0 0.0 0.00 0.00 0.00 86 1017.0
20260507050525 63 360 11.0 0.0 0.00 0.00 0.00 84 1017.0
20260507044823 63 360 11.0 0.0 0.00 0.00 0.00 83 1017.0
20260507043122 63 360 11.0 0.0 0.00 0.00 0.00 82 1017.0
20260507041422 63 360 11.0 0.0 0.00 0.00 0.00 80 1017.0
20260507035720 63 360 11.0 0.0 0.00 0.00 0.00 78 1017.0
20260507034019 63 360 11.0 0.0 0.00 0.00 0.00 78 1017.0
20260507032318 63 360 11.0 0.0 0.00 0.00 0.00 78 1017.0
20260507030618 63 360 11.0 0.0 0.00 0.00 0.00 78 1017.0
20260507024918 64 360 11.0 0.0 0.00 0.00 0.00 77 1017.0
20260507023215 65 360 11.0 0.0 0.00 0.00 0.00 75 1017.0
20260507021515 65 360 11.0 0.0 0.00 0.00 0.00 71 1016.0
20260507015814 65 360 11.0 0.0 0.00 0.00 0.00 66 1016.0
20260507014113 65 360 11.0 0.0 0.00 0.00 0.00 62 1016.0
20260507012412 65 360 11.0 0.0 0.00 0.00 0.00 58 1015.0
20260507010712 65 360 11.0 0.0 0.00 0.00 0.00 53 1015.0
20260507005011 66 360 11.0 0.0 0.00 0.00 0.00 49 1015.0
20260507003311 67 360 11.0 0.0 0.00 0.00 0.00 46 1014.0
20260507001611 68 360 11.0 0.0 0.00 0.00 0.00 46 1013.0
20260506235910 69 360 11.0 0.0 0.00 0.00 0.00 46 1013.0
20260506234208 70 360 11.0 0.0 0.00 0.00 0.00 46 1013.0
20260506232507 71 360 11.0 0.0 0.00 0.00 0.00 46 1012.0
20260506230807 72 360 11.0 0.0 0.00 0.00 0.00 46 1012.0
20260506225106 73 360 11.0 0.0 0.00 0.00 0.00 46 1012.0
20260506223404 74 360 11.0 0.0 0.00 0.00 0.00 46 1011.0
20260506221704 75 360 11.0 0.0 0.00 0.00 0.00 46 1010.0
20260506220003 76 360 11.0 0.0 0.00 0.00 0.00 46 1010.0
20260506214303 77 360 11.0 0.0 0.00 0.00 0.00 46 1010.0
20260506212602 78 360 11.0 0.0 0.00 0.00 0.00 46 1009.0
20260506210902 79 360 11.0 0.0 0.00 0.00 0.00 46 1008.0
20260506205201 80 360 11.0 0.0 0.00 0.00 0.00 47 1009.0
20260506203501 80 360 11.0 0.0 0.00 0.00 0.00 48 1009.0
20260506201800 77 360 11.0 0.0 0.00 0.00 0.00 52 1009.0
20260506200100 76 0 6.0 0.0 0.00 0.00 0.00 56 1009.0
20260506194359 76 0 6.0 0.0 0.00 0.00 0.00 56 1009.0
20260506192659 76 0 6.0 0.0 0.00 0.00 0.00 57 1009.0
20260506190957 76 0 6.0 0.0 0.00 0.00 0.00 57 1009.0
20260506185255 77 0 5.0 0.0 0.00 0.00 0.00 57 1010.0
20260506183555 75 0 5.0 0.0 0.00 0.00 0.00 62 1010.0
20260506181854 75 0 5.0 0.0 0.00 0.00 0.00 63 1011.0
20260506180153 75 160 5.0 0.0 0.00 0.00 0.00 65 1011.0
20260506174451 73 160 5.0 0.0 0.00 0.00 0.00 64 1011.0
20260506172751 74 160 5.0 0.0 0.00 0.00 0.00 64 1012.0
20260506171050 75 160 5.0 0.0 0.00 0.00 0.00 64 1012.0
20260506165349 73 160 6.0 0.0 0.00 0.00 0.00 69 1012.0
20260506163649 73 160 6.0 0.0 0.00 0.00 0.00 70 1013.0
20260506161948 72 160 6.0 0.0 0.00 0.00 0.00 70 1014.0
20260506160248 73 0 4.0 0.0 0.00 0.00 0.00 70 1014.0
20260506154546 72 0 4.0 0.0 0.00 0.00 0.00 71 1014.0
20260506152846 72 0 4.0 0.0 0.00 0.00 0.00 71 1015.0
20260506151145 72 0 4.0 0.0 0.00 0.00 0.00 71 1015.0
20260506145445 72 0 4.0 0.0 0.00 0.00 0.00 72 1015.0
20260506143744 65 0 4.0 0.0 0.00 0.00 0.00 90 1015.0
20260506142044 66 0 1.0 0.0 0.00 0.00 0.00 90 1016.0
20260506140343 67 0 2.0 0.0 0.00 0.00 0.00 90 1016.0
20260506134642 68 0 2.0 0.0 0.00 0.00 0.00 90 1016.0
20260506132937 63 20 4.0 0.0 0.00 0.00 0.00 96 1016.0
20260506131236 63 20 4.0 0.0 0.00 0.00 0.00 96 1016.0
20260506125536 64 20 4.0 0.0 0.00 0.00 0.00 96 1016.0
20260506123834 64 20 4.0 0.0 0.00 0.00 0.00 96 1016.0
20260506122133 64 20 4.0 0.0 0.00 0.00 0.00 96 1017.0
20260506120433 63 20 4.0 0.0 0.00 0.00 0.00 97 1017.0
20260506114732 63 20 4.0 0.0 0.00 0.00 0.00 96 1017.0
20260506113031 63 20 4.0 0.0 0.00 0.00 0.00 95 1017.0
20260506111331 63 20 4.0 0.0 0.00 0.00 0.00 93 1016.0
20260506105631 64 20 4.0 0.0 0.00 0.00 0.00 92 1016.0
20260506103929 64 20 4.0 0.0 0.00 0.00 0.00 92 1016.0
20260506102228 64 20 4.0 0.0 0.00 0.00 0.00 92 1016.0
20260506094824 63 360 4.0 0.0 0.00 0.00 0.00 94 1016.0
20260506093124 64 360 4.0 0.0 0.00 0.00 0.00 93 1016.0
20260506091423 64 360 4.0 0.0 0.00 0.00 0.00 95 1015.0
20260506085722 64 360 4.0 0.0 0.00 0.00 0.00 97 1015.0
20260506084020 64 360 4.0 0.0 0.00 0.00 0.00 97 1015.0
20260506082320 65 360 4.0 0.0 0.00 0.00 0.00 96 1016.0
20260506080619 67 360 4.0 0.0 0.00 0.00 0.00 89 1016.0
20260506073219 67 40 3.0 0.0 0.00 0.00 0.00 94 1016.0
20260506071517 68 40 3.0 0.0 0.00 0.00 0.00 91 1016.0